Tracking 29892 objects as of 21-Nov-2024
HD Live streaming from Space Station
objects crossing your sky now

ORBCOMM FM 111

Track ORBCOMM FM 111 now!
10-day predictions
ORBCOMM FM 111 is classified as:


NORAD ID: 40089
Int'l Code: 2014-040D
Perigee: 601.0 km
Apogee: 646.5 km
Inclination: 47.0 °
Period: 97.0 minutes
Semi major axis: 6994 km
RCS: Unknown
Launch date: July 14, 2014
Source: United States (US)
Launch site: AIR FORCE EASTERN TEST RANGE (AFETR)
Your satellite tracking list
Your tracking list is empty




NASA's NSSDC Master Catalog

Two Line Element Set (TLE):
1 40089U 14040D   24325.63025137  .00006428  00000-0  78010-3 0  9992
2 40089  47.0039 357.8560 0032579 276.8446  82.8744 14.84039326559229
Source of the keplerian elements: AFSPC